www.pogodaiklimat.ru

Погода и климат >> Архив погоды >> Эстония >> Кунда


ПОГОДА в Кунде

  • Прогноз погоды в Кунде
  • Монитор погоды в Кунде

АРХИВ ПОГОДЫ в Кунде

Время (UTC), дата Ветер
(напр.,м/с)
 
Видим.   Явления Облачность Т
(С)
Тd
(С)
f
(%)
Тe
(С)
Тes
(С)
Комфортность P
(гПа)
Po
(гПа)
Тmin
(С)
Tmax
(С)
R
(мм)
R24
(мм)
S
(см)
13 15.09 ЮЗ 9 15 км н/о +13.1 +11.9 92 +10 +10 990.3 990.0 0.1
14 15.09 З 11 4100 м н/о +13.2 +11.4 89 +10 +10 990.2 989.9 2
15 15.09 З 12 35 км в посл. час дождь {ливн. осадки} ясно +13.1 +7.8 70 +10 +10 990.0 989.7 3
16 15.09 З 8 35 км н/о +12.3 +9.9 85 +9 +9 990.4 990.1
17 15.09 ЮЗ 8 35 км н/о +11.2 +9.5 89 +8 +8 990.9 990.5
18 15.09 ЮЗ 8 35 км ясно +10.8 +9.3 90 +7 +7 991.1 990.8 +9.3 +13.5
19 15.09 ЮЗ 9 35 км н/о +10.7 +8.2 85 +7 +7 991.0 990.7
20 15.09 ЮЗ 8 35 км н/о +10.0 +8.0 87 +6 +6 991.0 990.7
21 15.09 ЮЗ 8 35 км 1/0 2000 м
[Ac und Cs]
+9.7 +9.7 100 +5 +5 990.9 990.6
22 15.09 ЮЗ 8 35 км н/о +9.1 +7.8 92 +5 +5 990.8 990.5 2
23 15.09 ЮЗ 8 35 км н/о +8.7 +8.0 95 +4 +4 990.4 990.1
00 16.09 ЮЗ 9-11
{12}
35 км {ливн. осадки} 1/0
[Ac und Cc]
+8.6 +8.5 99 +4 +4 990.2 989.9 +8.5 +13.5 2
01 16.09 ЮЗ 8 35 км н/о +9.4 +7.9 90 +5 +5 990.1 989.8
02 16.09 ЮЗ 8 30 км н/о +9.2 +7.9 92 +5 +5 990.2 989.9
03 16.09 ЮЗ 8 35 км в посл. час дождь {ливн. осадки} 6/6 1500 м
[Ac und Cs]
+9.0 +8.5 97 +4 +4 989.8 989.5 0.1
04 16.09 ЮЗ 8 30 км н/о +9.2 +8.2 93 +5 +5 989.5 989.1
05 16.09 ЮЗ 8 26 км н/о +10.0 +8.8 92 +6 +6 989.1 988.7
06 16.09 ЮЗ 8 35 км 9/8 1500 м
[Ac und Cs]
+10.9 +8.5 85 +7 +7 989.1 988.7 +8.5 +11.2
07 16.09 ЮЗ 8 35 км н/о +11.0 +9.8 92 +7 +7 989.3 989.0
08 16.09 З 8 30 км н/о +11.8 +10.4 91 +8 +8 989.8 989.5
09 16.09 З 13 35 км {ливн. осадки} н/о +12.8 +8.5 75 +9 +9 990.3 990.0
10 16.09 35 км н/о +12.8 +7.8 72 991.0 990.7
11 16.09 35 км н/о +13.1 +7.9 71 991.4 991.1
12 16.09 СЗ 12 12 км дождь 9/9 300 м
[As trans Cc]
+11.9 +8.6 80 +8 +8 992.1 991.7 2
13 16.09 З 10 23 км н/о +11.7 +9.4 86 +8 +8 992.5 992.2 0.2
14 16.09 СЗ 10 35 км н/о +12.6 +9.8 83 +9 +9 993.0 992.7
15 16.09 СЗ 8 35 км {ливн. осадки} 9/9 600 м
[As op Cs]
+12.9 +9.0 77 +10 +10 993.2 992.9 0.2
16 16.09 СЗ 8 35 км н/о +12.5 +9.0 79 +9 +9 993.6 993.3
17 16.09 СЗ 7 35 км н/о +12.3 +8.4 77 +9 +9 994.2 993.9
18 16.09 С 8 35 км 9/9 600 м
[As op Ci fib]
+11.5 +10.7 95 +8 +8 994.5 994.2 +10.7 +13.2
19 16.09 С 6 35 км н/о +11.5 +8.3 81 +9 +9 994.8 994.5
20 16.09 С 6 35 км н/о +11.6 +8.5 81 +9 +9 995.1 994.7
21 16.09 С 7 35 км {ливн. осадки} 9/6 600 м
[As op Ci]
+11.6 +11.2 97 +9 +9 995.4 995.0
22 16.09 С 8 35 км н/о +11.5 +6.9 73 +8 +8 995.4 995.1
23 16.09 С 8 35 км н/о +11.5 +7.9 79 +8 +8 995.5 995.1
00 17.09 С 7-9
{10}
35 км в посл. час дождь {ливн. осадки} 9/9 300 м
[As trans Cc]
+11.2 +11.2 100 +8 +8 995.6 995.3 +11.2 +13.1
01 17.09 СЗ 8 35 км н/о +10.9 +6.9 76 +7 +7 995.6 995.3
02 17.09 СЗ 8 35 км н/о +10.9 +6.3 73 +7 +7 995.6 995.3
03 17.09 СЗ 8 35 км 8/8 600 м
[As op Cs]
+10.7 +10.5 99 +7 +7 995.7 995.3
04 17.09 СЗ 9 35 км н/о +10.2 +6.0 75 +6 +6 995.6 995.3
05 17.09 СЗ 8 35 км н/о +10.3 +5.0 70 +7 +7 995.9 995.6
06 17.09 СЗ 8 35 км 9/9 600 м
[As op Cs]
+10.1 +10.0 99 +6 +6 996.1 995.7 +10.0 +11.7
07 17.09 СЗ 6 35 км н/о +10.2 +5.9 75 +7 +7 996.2 995.9
08 17.09 СЗ 6 35 км н/о +10.4 +5.5 72 +7 +7 996.3 996.0
09 17.09 СЗ 5 35 км 9/9 600 м
[As op Ci]
+10.3 +10.0 98 +7 +7 996.6 996.3
10 17.09 СЗ 6 35 км н/о +10.5 +6.2 75 +7 +7 996.7 996.4
11 17.09 СЗ 6 35 км н/о +10.8 +5.7 71 +8 +8 996.9 996.6
12 17.09 СЗ 6 35 км {ливн. осадки} 8/8 600 м
[Ac trans Ci sp]
+10.9 +10.0 94 +8 +8 997.0 996.7
13 17.09 СЗ 6 35 км н/о +10.8 +5.2 68 +8 +8 996.9 996.6
14 17.09 СЗ 4 35 км н/о +11.0 +5.4 68 +9 +9 996.9 996.6
15 17.09 СЗ 4 35 км 8/8 1000 м
[Ac trans Cs]
+11.2 +10.0 92 +9 +9 996.8 996.5
16 17.09 СЗ 4 35 км н/о +11.2 +5.0 66 +9 +9 996.8 996.5
17 17.09 С 5 35 км н/о +11.2 +6.1 71 +9 +9 996.9 996.6
18 17.09 С 4 35 км 9/9 600 м
[As op Cs]
+11.1 +10.0 93 +9 +9 996.9 996.5 +10.0 +11.4
19 17.09 СЗ 4 29 км н/о +10.7 +7.3 79 +8 +8 996.9 996.6 0.3
20 17.09 В 4 3800 м н/о +8.1 +6.3 88 +5 +5 997.4 997.0 6
21 17.09 Ю 3 4300 м сильн. дождь {ливн. осадки} 1/0
[]
+7.8 +7.3 97 +5 +5 996.9 996.5 14
22 17.09 Ю 1 3800 м н/о +7.5 +7.4 99 +6 +6 997.2 996.9 9
23 17.09 ЮЗ 2 6000 м н/о +7.7 +7.6 99 +5 +5 997.1 996.8 4
00 18.09 СВ 3 23 км слаб. дождь 9/9 300 м
[As trans Ci]
+9.7 +7.3 85 +7 +7 997.3 996.9 13
01 18.09 СВ 3 22 км н/о +8.9 +8.3 96 +6 +6 997.5 997.1 0.2
02 18.09 СВ 6 20 км н/о +10.0 +7.0 82 +7 +7 997.8 997.5 2
03 18.09 СВ 7 35 км в посл. час дождь {ливн. осадки} 1/0
[]
+10.2 +7.3 82 +7 +7 998.3 997.9 4
04 18.09 СВ 6 35 км н/о +9.9 +6.8 81 +6 +6 999.0 998.6
05 18.09 В 7 35 км н/о +10.1 +7.1 82 +6 +6 999.5 999.2 0.6
06 18.09 СВ 8 35 км {ливн. осадки} 9/9 1000 м
[Ac trans Cc]
+10.8 +7.3 79 +7 +7 1000.2 999.9 +7.3 +11.4 0.6
07 18.09 СВ 7 19 км н/о +10.5 +6.3 75 +7 +7 1000.9 1000.5 0.4
08 18.09 СВ 8 35 км н/о +10.8 +6.7 76 +7 +7 1001.5 1001.2 0.1
09 18.09 С 8 35 км {дождь} 9/9 600 м
[As op Cs]
+10.8 +7.4 80 +7 +7 1002.4 1002.0 0.5
10 18.09 СВ 8 35 км н/о +10.5 +7.0 79 +7 +7 1003.1 1002.8
11 18.09 С 8 35 км н/о +11.0 +5.9 71 +7 +7 1003.7 1003.4
12 18.09 С 8 35 км 9/9 600 м
[As op Cs]
+11.4 +8.4 82 1004.5 1004.1
13 18.09 С 9 35 км н/о +11.0 +6.5 74 +7 +7 1004.9 1004.6
14 18.09 С 8 35 км н/о +11.5 +6.4 71 +8 +8 1005.5 1005.1
15 18.09 35 км {ливн. осадки} 9/9 1000 м
[Ac trans Cs]
+11.5 +9.5 88 1006.1 1005.8
16 18.09 С 9 35 км н/о +10.8 +5.6 70 +7 +7 1006.6 1006.3
17 18.09 С 8 35 км н/о +10.6 +5.0 68 +7 +7 1007.2 1006.9
18 18.09 СВ 7 35 км 9/9 600 м
[Ac trans Ci fib]
+10.3 +9.1 92 +7 +7 1007.9 1007.6 +9.1 +11.7
19 18.09 СВ 8 35 км н/о +10.3 +4.3 66 +7 +7 1008.5 1008.1
20 18.09 С 8 35 км н/о +10.4 +5.1 70 +7 +7 1008.8 1008.5
21 18.09 С 8 35 км 5/3 1000 м
[Ac trans Ci]
+10.2 +9.1 93 +6 +6 1009.4 1009.1
22 18.09 35 км н/о +9.9 +4.1 67 1009.8 1009.4
23 18.09 С 7 35 км н/о +9.7 +3.2 64 +6 +6 1010.2 1009.9
00 19.09 С 6-8
{11}
35 км 4/4 1000 м
[Ac lent Ci]
+9.4 +9.1 98 +6 +6 1010.6 1010.2 +9.1 +11.7
01 19.09 35 км н/о +9.5 +0.9 55 1010.8 1010.5
02 19.09 С 6 35 км н/о +9.6 +1.4 57 +6 +6 1011.0 1010.7
03 19.09 СВ 8 35 км слаб. дождь 9/9 1000 м
[Ac lent Cc]
+8.2 +8.2 100 +4 +4 1011.5 1011.1
04 19.09 С 7 35 км н/о +9.7 +3.3 64 +6 +6 1011.7 1011.3
05 19.09 С 6 35 км н/о +9.4 +1.7 59 +6 +6 1012.1 1011.8
06 19.09 С 6 35 км 3/3 1000 м
[Ac lent Ci sp]
+9.8 +7.8 87 +7 +7 1012.5 1012.2 +7.8 +10.6
07 19.09 С 5 35 км н/о +10.1 +2.0 57 +7 +7 1013.1 1012.7
08 19.09 С 5 35 км н/о +9.9 +1.7 57 +7 +7 1013.5 1013.2
09 19.09 С 4 35 км 4/1 1000 м
[Ac lent Cs]
+10.0 +7.8 86 +8 +8 1013.8 1013.4
10 19.09 С 4 35 км н/о +10.0 +1.7 56 +8 +8 1014.2 1013.8
11 19.09 СЗ 3 35 км н/о +10.2 0.0 49 +9 +9 1014.2 1013.9
12 19.09 СЗ 3 35 км ясно +10.2 +7.8 85 +9 +9 1014.3 1013.9
13 19.09 СЗ 3 35 км н/о +10.5 +2.5 58 +9 +9 1014.2 1013.9
14 19.09 СЗ 4 35 км н/о +10.7 +2.6 57 +9 +9 1014.0 1013.7
15 19.09 З 5 35 км 5/0
[Ac cuf]
+10.7 +7.8 82 +8 +8 1013.9 1013.6
16 19.09 З 4 35 км н/о +8.4 +2.4 66 +6 +6 1014.0 1013.6
17 19.09 СЗ 11 35 км н/о +9.8 +6.5 80 +5 +5 1014.1 1013.8
18 19.09 З 3 14 км дождь 10/10 600 м
[Ac trans Ci sp]
+8.0 +7.8 99 +5 +5 1014.7 1014.4 +7.8 +10.9 0.4
19 19.09 Ю 3 35 км н/о +6.1 +5.1 93 +3 +3 1014.2 1013.9 0.6
20 19.09 СЗ 7 35 км н/о +9.5 +5.5 76 +6 +6 1014.3 1014.0 0.8
21 19.09 СЗ 9 35 км {ливн. осадки} 8/8 600 м
[As op Cs]
+9.1 +5.3 77 +5 +5 1014.9 1014.5 1
22 19.09 С 9 35 км н/о +8.6 +4.2 74 +4 +4 1015.5 1015.2
23 19.09 С 9 35 км н/о +8.5 +4.0 73 +4 +4 1015.7 1015.3
00 20.09 С 9-12
{13}
35 км 9/9 600 м
[As op Cs]
+8.6 +5.3 80 +4 +4 1016.0 1015.7 +5.3 +10.9
01 20.09 35 км н/о +8.2 +4.1 75 1016.0 1015.6
02 20.09 С 8 35 км н/о +8.4 +3.1 69 +4 +4 1015.9 1015.6
03 20.09 С 7 35 км 4/4 600 м
[As op Cs]
+8.4 +5.3 81 +4 +4 1015.9 1015.6
04 20.09 С 6 24 км н/о +8.4 +3.3 70 +5 +5 1016.2 1015.9
05 20.09 СЗ 7 35 км н/о +8.4 +2.5 66 +4 +4 1016.6 1016.3
06 20.09 СЗ 7 35 км 6/6 1000 м
[Ac trans Ci]
+8.4 +5.3 81 +4 +4 1016.9 1016.6 +5.3 +9.6
07 20.09 СЗ 6 35 км н/о +8.5 +1.6 62 +5 +5 1017.3 1016.9
08 20.09 СЗ 6 35 км н/о +8.9 0.0 54 +6 +6 1017.5 1017.2
09 20.09 СЗ 6 35 км 4/4 1000 м
[Ac lent Ci sp]
+9.2 +8.0 92 +6 +6 1017.6 1017.2
10 20.09 З 6 35 км н/о +9.3 +0.4 54 +6 +6 1017.3 1017.0
11 20.09 З 6 35 км н/о +9.9 +1.0 54 +7 +7 1016.8 1016.5
12 20.09 З 7 35 км 6/6 1000 м
[Ac lent Cc]
+10.6 +8.0 84 +7 +7 1016.5 1016.2
13 20.09 ЮЗ 5 12 км н/о +7.6 +4.3 80 +4 +4 1016.4 1016.1 0.4
14 20.09 ЮЗ 5 35 км н/о +8.8 +4.5 74 +5 +5 1016.0 1015.7
15 20.09 ЮЗ 4 35 км слаб. ливневой дождь 9/9 1000 м
[Ac lent]
+8.8 +6.9 88 +6 +6 1015.7 1015.4 0.4
16 20.09 ЮЗ 3 35 км н/о +8.0 +3.5 73 +5 +5 1015.4 1015.0
17 20.09 ЮЗ 6 35 км н/о +6.9 +3.6 79 +3 +3 1015.1 1014.7
18 20.09 ЮЗ 6 35 км 5/5 1500 м
[Ac und Cs]
+6.9 +6.6 98 +3 +3 1014.8 1014.5 +6.6 +11.0
19 20.09 ЮЗ 6 35 км н/о +6.8 +3.5 79 +2 +2 1014.7 1014.3
20 20.09 З 10 29 км н/о +7.7 +5.0 83 +2 +2 1014.7 1014.3
21 20.09 ЮЗ 4 35 км ливневой дождь 1/0
[]
+6.2 +5.4 95 +2 +2 1014.2 1013.8 0.9
22 20.09 ЮЗ 2 35 км н/о +6.0 +5.0 93 +3 +3 1013.6 1013.2
23 20.09 ЮЗ 5 35 км н/о +6.4 +5.0 91 +2 +2 1013.0 1012.7
00 21.09 ЮЗ 5
{8}
35 км слаб. дождь 9/9 1000 м
[Ac lent Cs]
+6.3 +5.9 97 +2 +2 1012.1 1011.8 +5.9 +11.0
01 21.09 ЮЗ 4 35 км н/о +6.2 +5.4 95 +2 +2 1011.5 1011.2 0.1
02 21.09 Ю 4 35 км н/о +6.2 +5.4 95 +2 +2 1011.0 1010.7 0.1
03 21.09 Ю 3 35 км в посл. час осадки {ливн. осадки} 9/1 1500 м
[Ac und Cs]
+6.0 +5.9 99 +3 +3 1009.9 1009.5 0.3
04 21.09 Ю 3 26 км н/о +6.0 +5.5 97 +3 +3 1008.9 1008.6
05 21.09 Ю 2 30 км н/о +6.0 +5.7 98 +3 +3 1008.3 1008.0
06 21.09 Ю 2 35 км {ливн. осадки} 9/9 100 м
[Cs]
+6.9 +5.8 93 +4 +4 1007.8 1007.5 +5.8 +7.8
07 21.09 Ю 2 21 км н/о +8.0 +7.3 95 +6 +6 1007.5 1007.2
08 21.09 Ю 2 2300 м {дождь} н/о +8.2 +7.9 98 +6 +6 1007.1 1006.8 +5.8 +8.2 0.6
09 21.09 Ю 2 35 км в посл. час дождь 10/10 100 м
[Cs]
+8.9 +5.8 81 +7 +7 1006.7 1006.3 1
10 21.09 СЗ 11 35 км н/о +11.5 +8.4 81 +7 +7 1006.5 1006.1
11 21.09 СЗ 10 35 км н/о +11.3 +8.9 85 +7 +7 1006.6 1006.2
12 21.09 СЗ 11 19 км 9/9 300 м
[As trans Cs]
+10.7 +5.8 72 +6 +6 1006.8 1006.5
13 21.09 С 9 35 км н/о +10.6 +8.5 87 +7 +7 1007.3 1006.9
14 21.09 С 7 35 км н/о +10.4 +8.3 87 +7 +7 1007.2 1006.9
15 21.09 С 7 35 км 10/10 300 м
[As trans Cc]
+10.6 +5.8 72 +7 +7 1007.3 1006.9
16 21.09 С 5 35 км н/о +10.6 +7.9 83 +8 +8 1007.5 1007.1
17 21.09 С 8 35 км н/о +10.6 +7.0 78 +7 +7 1007.9 1007.6
18 21.09 СЗ 8 35 км 9/9 600 м
[As op Ci ing]
+10.7 +6.9 77 +7 +7 1008.1 1007.8 +6.9 +11.8
19 21.09 СЗ 8 35 км н/о +10.7 +6.0 73 +7 +7 1008.1 1007.8
20 21.09 СЗ 8 35 км н/о +10.6 +6.6 76 +7 +7 1008.3 1007.9
21 21.09 С 9 35 км слаб. ливневой дождь 9/9 600 м
[As op Ci fib]
+10.5 +8.9 90 +6 +6 1008.2 1007.8
22 21.09 СЗ 10 35 км н/о +10.5 +7.7 83 +6 +6 1008.4 1008.1 0.1
23 21.09 С 10 30 км н/о +9.9 +7.2 83 +5 +5 1008.8 1008.4
00 22.09 С 12-15
{15}
35 км {ливн. осадки} 9/9 600 м
[As op Ci sp]
+9.7 +9.6 99 +5 +5 1009.1 1008.8 +9.6 +11.1 0.1
01 22.09 С 12 35 км н/о +9.3 +4.0 69 +4 +4 1009.7 1009.3
02 22.09 С 12 35 км н/о +8.8 +3.5 69 +4 +4 1010.2 1009.9
03 22.09 С 12 35 км 9/3 600 м
[As op Cc]
+8.8 +8.6 99 +4 +4 1010.8 1010.5
04 22.09 С 11 35 км н/о +8.7 +4.8 76 +4 +4 1011.2 1010.9
05 22.09 С 10 30 км н/о +8.7 +5.0 78 +4 +4 1011.9 1011.6
06 22.09 С 11-14
{14}
35 км 1/1 600 м
[As op Cs]
+8.4 +8.4 100 +3 +3 1012.6 1012.3 +8.4 +10.9
07 22.09 С 11 35 км н/о +8.7 +3.3 69 +4 +4 1013.3 1013.0
08 22.09 С 10 35 км н/о +8.4 +3.4 71 +3 +3 1014.1 1013.7
09 22.09 С 8 35 км 4/4 600 м
[As op Ci]
+8.8 +8.3 97 1014.8 1014.5
10 22.09 С 7 35 км н/о +8.5 +2.9 68 +4 +4 1015.2 1014.9
11 22.09 С 7 35 км н/о +9.3 +3.8 68 +6 +6 1015.7 1015.4

 

Местоположение метеостанции Кунда (Эстония): широта 59.52 долгота 26.53 высота над уровнем моря 3 м.

В архиве по умолчанию представлена погода в Кунде за последнюю неделю. Архивные данные за месяц целиком и за предыдущие месяцы, начиная с января 2011 года, Вы можете получить, выбрав интересующий диапазон дат из раскрывающегося списка и нажав кнопку "Ввод!".


*Определитесь, кто Вы:
робот инопланетянин человек

Внимание! Время в таблицах - всемирное. Для получения местного времени необходимо прибавить поправку, которая равна 2 ч.

Смотрите также архив погоды в соседних городах и на ближайших метеорологических станциях:

Погода в Вяйке-Маарье (Эстония) (47 км)
Погода в Йохви (Эстония) (53 км)
Погода в Гогланде (Ленинградская область, Россия) (67 км)
Погода на Маяке Kalbadagrund (Финляндия) (74 км)
Погода в Тиирикое (Эстония) (76 км)
Погода в Орренгрунде (Финляндия) (84 км)
Погода в Йыгеве (Эстония) (86 км)
Погода на Эмасало (Финляндия) (91 км)
Погода в Нарве (Эстония) (91 км)
Погода в Котка Хаапасари (Финляндия) (93 км)

Пояснения к столбцам:

Ветер - указаны скорость ветра в м/с - средняя за 10 мин, порывы в срок и между сроками (в фигурных скобках) и направление, откуда дует ветер: С - северный, СВ - северо-восточный, В - восточный, ЮВ - юго-восточный, Ю - южный, ЮЗ - юго-западный, З - западный, СЗ - северо-западный.
Видимость - горизонтальная дальность видимости в метрах или километрах. При видимости от 1 до 10 км при отсутствии осадков обычно наблюдается дымка, при ухудшении видимости до 1 км и менее - туман. В сухую погоду видимость может ухудшаться дымом, пылью или мглою.
Явления - указаны атмосферные явления, наблюдавшиеся в срок или в последний час перед сроком; фигурными скобками обозначены явления, наблюдавшиеся между сроками (за 1-3 часа до срока); квадратными скобками обозначены град или гололедные отложения с указанием их диаметра в мм.
Облачность - указаны через наклонную черту общая и нижняя облачность в баллах и высота нижней границы облаков в метрах; квадратными скобками обозначены формы облаков: Ci - перистые, Cs - перисто-слоистые, Cc - перисто-кучевые, Ac - высококучевые, As - высокослоистые, Sc - слоисто-кучевые, Ns - слоисто-дождевые, Cu - кучевые, Cb - кучево-дождевые. Подробнее классификацию облаков см. в Атласе облаков (PDF).
T - Температура воздуха - температура, измеренная на высоте 2 м над землей.
Td - Температура точки росы - температура, при понижении до которой содержащийся в воздухе водяной пар достигнет насыщения.
f - Относительная влажность воздуха - влажноcть воздуха, измеренная на высоте 2 м над землей.
Te - Эффективная температура - температура, которую ощущает одетый по сезону человек в тени. Характеристика душности погоды. При расчете учитывается влияние влажности воздуха и скорости ветра на теплоощущения человека.
Tes - Эффективная температура на солнце - температура, которую ощущает человек, с поправкой на солнечный нагрев. Характеристика знойности погоды. Зависит от высоты солнца над горизонтом, облачности и скорости ветра. Ночью, в пасмурную погоду, а также при ветре 12 м/с и более поправка равна нулю.
P - Атмосферное давление - приведенное к уровню моря атмосферное давление.
Po - Атмосферное давление - измеренное на уровне метеостанции атмосферное давление.
Tmin - Минимальная температура - минимум температуры воздуха на высоте 2 м над землей.
Tmax - Максимальная температура - максимум температуры воздуха на высоте 2 м над землей.
R - Количество осадков - Количество выпавших осадков за период времени, мм. При наведении курсора мыши на число - период времени, за который выпало указанное количество осадков.
R24 - Количество осадков - Количество выпавших осадков за 24 часа, мм.
S - Снежный покров - Высота снежного покрова, см. При наведении курсора мыши на число - состояние снежного покрова и степень покрытия местности в баллах.